Location: Sydney
(33.8675°S, 151.2070°E)
Time: 11:48:15
(UTC+11:00)

Hubble Space Telescope - Pass Details

Date: 11 May 2015
Orbit: 536 x 540 km, 28.5° (Epoch: 20 October)

Event Time Altitude Azimuth Distance (km) Brightness Sun altitude
Exits shadow 05:14:27 24° 309° (NW) 1,143 2.1 -17.3°
Maximum altitude 05:16:23 39° 2° (N) 820 1.7 -16.9°
Drops below altitude 10° 05:20:18 10° 71° (ENE) 1,805 4.8 -16.1°
Sets 05:22:40 0° 78° (ENE) 2,698 6.3 -15.6°
